Flag for Canada Weather past 2 weeks in Sidney, British Columbia, Canada

Now
43 °F

Light rain. Fog.


Feels Like: 38 °F
Forecast: 42 / 48 °F
Wind: 8 mph from Southeast

Location: Victoria Int. Airportb. C.

Current Time: Dec 27, 2014 at 5:50:16 AM

Latest Report: Dec 27, 2014 at 5:00 AM


Visibility: 2 mi

Pressure: 30.16 "Hg

Humidity: 93%

Dew point: 41 °F

Location of SidneyLocation

Historic Weather in Sidney — Graph

°F

Sidney temperature yesterday

Maximum temperature yesterday: 41 °F (at 10:00 AM)
Minimum temperature yesterday: 34 °F (at 12:00 AM)
Average temperature yesterday: 39 °F

Past Weeks' High & Low Weather Summary

 TemperatureHumidityPressure
High55 °F (Dec 20, 8:00 PM)100% (Dec 13, 3:00 AM)30.38 "Hg (Dec 13, 3:00 AM)
Low30 °F (Dec 15, 2:00 AM)62% (Dec 21, 5:00 PM)29.30 "Hg (Dec 20, 7:00 PM)
Average43 °F88%29.97 "Hg
* Reported Dec 12 4:00 AM — Dec 27 4:00 AM, Sidney, Weather by CustomWeather, © 2014

Note: Actual official high and low records may vary slightly from our data, if they occured in-between our weather recording intervals... More about our weather records

Advertising

Sidney weather history for previous 24 hours

 ConditionsComfort  
Time TempWeatherWind HumidityBarometerVisibility
4:00 AM
Dec 27
43 °FLight rain. Fog.8 mph93%30.20 "Hg3 mi
3:00 AM43 °FLight rain. Fog.8 mph93%30.24 "Hg3 mi
2:00 AM41 °FLight rain. Fog.No wind100%30.27 "Hg3 mi
1:00 AM41 °FLight rain. Fog.5 mph100%30.27 "Hg3 mi
12:00 AM41 °FMostly cloudy.7 mph100%30.28 "Hg3 mi
11:00 PM
Dec 26
41 °FFog.No wind93%30.31 "Hg3 mi
10:00 PM41 °FLight rain. Fog.3 mph93%30.33 "Hg3 mi
9:00 PM41 °FLight rain. Fog.6 mph93%30.34 "Hg4 mi
8:00 PM39 °FLight rain. Mostly cloudy.2 mph100%30.34 "Hg10 mi
7:00 PM39 °FPassing clouds.3 mph100%30.34 "Hg15 mi
6:00 PM39 °FPassing clouds.2 mph100%30.35 "Hg20 mi
5:00 PM41 °FPartly cloudy.No wind93%30.35 "Hg15 mi
4:00 PM41 °FBroken clouds.2 mph93%30.34 "Hg12 mi
3:00 PM41 °FPartly sunny.2 mph93%30.35 "Hg12 mi
2:00 PM41 °FLight rain. Mostly cloudy.3 mph93%30.35 "Hg12 mi
1:00 PM41 °FLight rain. Mostly cloudy.3 mph93%30.36 "Hg7 mi
12:00 PM41 °FLight rain. Mostly cloudy.6 mph93%30.37 "Hg10 mi
11:00 AM39 °FLight rain. Fog.6 mph100%30.38 "Hg1 mi
10:00 AM41 °FLight rain. Fog.5 mph93%30.38 "Hg6 mi
9:00 AM39 °FLight rain. Mostly cloudy.3 mph93%30.36 "Hg20 mi
8:00 AM39 °FLight rain. Mostly cloudy.2 mph93%30.35 "Hg15 mi
7:00 AM39 °FMostly cloudy.5 mph93%30.34 "Hg30 mi
6:00 AM39 °FMostly cloudy.5 mph93%30.34 "Hg30 mi
5:00 AM39 °FMostly cloudy.5 mph93%30.33 "Hg30 mi
Weather by CustomWeather, © 2014

See weather overviewHow to use our weather pages